Home   Weather   Hamamatsu   Past weeks

Flag for Japan Past Weather in Hamamatsu, Japan — Yesterday and Last 2 Weeks

Now
45 °F

Quite cool.


Feels Like: 38 °F
Forecast: 33 / 52 °F
Wind: 13 mph from Northwest

Location: Omaezaki

Current Time: Jan 17, 2017 at 6:04:19 pm

Latest Report: Jan 17, 2017 at 5:00 pm


Visibility: 13 mi

Pressure: 30.22 "Hg

Humidity: 52%

Dew Point: 28 °F

Location of HamamatsuLocation

Past Weather in Hamamatsu — Graph

°F

Hamamatsu Temperature Yesterday

Maximum temperature yesterday: 43 °F (at 1:00 pm)
Minimum temperature yesterday: 33 °F (at 1:00 am)
Average temperature yesterday: 38 °F

High & Low Weather Summary for the Past Weeks

 TemperatureHumidityPressure
High56 °F (Jan 9, 1:00 pm)90% (Jan 9, 1:00 am)30.25 "Hg (Jan 9, 1:00 am)
Low28 °F (Jan 15, 3:00 am)28% (Jan 5, 3:00 pm)29.44 "Hg (Jan 8, 10:00 pm)
Average44 °F60%29.91 "Hg
* Reported Jan 2 4:00 pm — Jan 17 4:00 pm, Hamamatsu, Weather by CustomWeather, © 2017

Note: Actual official high and low records may vary slightly from our data, if they occured in-between our weather recording intervals... More about our weather records

Advertising

Hamamatsu Weather History for the Previous 24 Hours

Scroll right to see more
 ConditionsComfort  
Time TempWeatherWind HumidityBarometerVisibility
4:00 pm
Tue, Jan 17
48 °FCool.15 mph46%30.20 "Hg12 mi
3:00 pm50 °FCool.14 mph41%30.19 "Hg12 mi
2:00 pm51 °FCool.13 mph40%30.18 "Hg12 mi
1:00 pm49 °FCool.17 mph45%30.18 "Hg12 mi
12:00 pm50 °FCool.10 mph38%30.21 "Hg12 mi
11:00 am47 °FCool.15 mph41%30.23 "Hg12 mi
10:00 am45 °FQuite cool.12 mph45%30.23 "Hg12 mi
9:00 am41 °FQuite cool.14 mph53%30.23 "Hg12 mi
8:00 am38 °FChilly.9 mph61%30.22 "Hg12 mi
7:00 am35 °FChilly.12 mph68%30.17 "Hg12 mi
6:00 am36 °FChilly.14 mph66%30.15 "Hg12 mi
5:00 am35 °FChilly.16 mph69%30.12 "Hg12 mi
4:00 am36 °FChilly.17 mph67%30.09 "Hg12 mi
3:00 am37 °FChilly.23 mph72%30.07 "Hg12 mi
2:00 am36 °FChilly.18 mph71%30.06 "Hg12 mi
1:00 am36 °FChilly.16 mph70%30.04 "Hg12 mi
12:00 am36 °FChilly.15 mph66%30.04 "Hg12 mi
11:00 pm
Mon, Jan 16
38 °FChilly.16 mph63%30.04 "Hg12 mi
10:00 pm37 °FChilly.16 mph64%30.02 "Hg12 mi
9:00 pm36 °FChilly.15 mph69%30.00 "Hg12 mi
8:00 pm37 °FChilly.21 mph77%29.99 "Hg12 mi
7:00 pm37 °FChilly.21 mph69%29.97 "Hg12 mi
6:00 pm38 °FChilly.22 mph64%29.95 "Hg12 mi
Weather by CustomWeather, © 2017

See weather overviewHow to use our weather pages